Location: Unspecified
(49.2170°N, 0.0000°E)
Time: 16:49:24
(UTC+00:00)

A-11 Canister half - Pass Details

Date: 20 June 2019
Orbit: 1526 x 1683 km, 47.3° (Epoch: 20 July)

Event Time Altitude Azimuth Distance (km) Brightness Sun altitude
Rises 03:28:52 0° 194° (SSW) 4,750 11.0 -4.0°
Reaches altitude 10° 03:32:43 10° 181° (S) 3,745 10.6 -3.5°
Maximum altitude 03:39:43 24° 133° (SE) 2,771 10.5 -2.7°
Drops below altitude 10° 03:46:37 10° 84° (E) 3,700 12.0 -1.8°
Sets 03:50:22 0° 72° (ENE) 4,681 13.1 -1.3°
